Year,Month,Day,Hour,Minute,Value (Times are PST for temperature in C)
2007,09,21,00,00,9.90
2007,09,21,00,01,9.80
2007,09,21,00,02,9.80
2007,09,21,00,03,9.80
2007,09,21,00,04,9.80
2007,09,21,00,05,9.80
2007,09,21,00,06,9.80
2007,09,21,00,07,9.70
2007,09,21,00,08,9.70
2007,09,21,00,09,9.70
2007,09,21,00,10,9.70
2007,09,21,00,11,9.70
2007,09,21,00,12,9.70
2007,09,21,00,13,9.70
2007,09,21,00,14,9.70
2007,09,21,00,15,9.70
2007,09,21,00,16,9.70
2007,09,21,00,17,9.70
2007,09,21,00,18,9.70
2007,09,21,00,19,9.70
2007,09,21,00,20,9.70
2007,09,21,00,21,9.70
2007,09,21,00,22,9.70
2007,09,21,00,23,9.70
2007,09,21,00,24,9.70
2007,09,21,00,25,9.70
2007,09,21,00,26,9.70
2007,09,21,00,27,9.70
2007,09,21,00,28,9.70
2007,09,21,00,29,9.60
2007,09,21,00,30,9.60
2007,09,21,00,31,9.60
2007,09,21,00,32,9.60
2007,09,21,00,33,9.60
2007,09,21,00,34,9.60
2007,09,21,00,35,9.60
2007,09,21,00,36,9.60
2007,09,21,00,37,9.60
2007,09,21,00,38,9.60
2007,09,21,00,39,9.70
2007,09,21,00,40,9.70
2007,09,21,00,41,9.70
2007,09,21,00,42,9.70
2007,09,21,00,43,9.70
2007,09,21,00,44,9.70
2007,09,21,00,45,9.70
2007,09,21,00,46,9.80
2007,09,21,00,47,9.80
2007,09,21,00,48,9.80
2007,09,21,00,49,9.80
2007,09,21,00,50,9.80
2007,09,21,00,51,9.80
2007,09,21,00,52,9.80
2007,09,21,00,53,9.80
2007,09,21,00,54,9.70
2007,09,21,00,55,9.70
2007,09,21,00,56,9.70
2007,09,21,00,57,9.70
2007,09,21,00,58,9.70
2007,09,21,00,59,9.70
2007,09,21,01,00,9.70
2007,09,21,01,01,9.70
2007,09,21,01,02,9.70
2007,09,21,01,03,9.70
2007,09,21,01,04,9.70
2007,09,21,01,05,9.70
2007,09,21,01,06,9.70
2007,09,21,01,07,9.70
2007,09,21,01,08,9.70
2007,09,21,01,09,9.70
2007,09,21,01,10,9.70
2007,09,21,01,11,9.60
2007,09,21,01,12,9.60
2007,09,21,01,13,9.60
2007,09,21,01,14,9.60
2007,09,21,01,15,9.60
2007,09,21,01,16,9.60
2007,09,21,01,17,9.60
2007,09,21,01,18,9.70
2007,09,21,01,19,9.70
2007,09,21,01,20,9.70
2007,09,21,01,21,9.70
2007,09,21,01,22,9.70
2007,09,21,01,23,9.70
2007,09,21,01,24,9.70
2007,09,21,01,25,9.70
2007,09,21,01,26,9.70
2007,09,21,01,27,9.70
2007,09,21,01,28,9.70
2007,09,21,01,29,9.70
2007,09,21,01,30,9.70
2007,09,21,01,31,9.70
2007,09,21,01,32,9.70
2007,09,21,01,33,9.70
2007,09,21,01,34,9.70
2007,09,21,01,35,9.70
2007,09,21,01,36,9.70
2007,09,21,01,37,9.80
2007,09,21,01,38,9.80
2007,09,21,01,39,9.80
2007,09,21,01,40,9.80
2007,09,21,01,41,9.80
2007,09,21,01,42,9.80
2007,09,21,01,43,9.80
2007,09,21,01,44,9.80
2007,09,21,01,45,9.80
2007,09,21,01,46,9.80
2007,09,21,01,47,9.80
2007,09,21,01,48,9.80
2007,09,21,01,49,9.80
2007,09,21,01,50,9.80
2007,09,21,01,51,9.80
2007,09,21,01,52,9.90
2007,09,21,01,53,9.90
2007,09,21,01,54,9.90
2007,09,21,01,55,9.90
2007,09,21,01,56,9.90
2007,09,21,01,57,9.90
2007,09,21,01,58,9.90
2007,09,21,01,59,9.90
2007,09,21,02,00,10.00
2007,09,21,02,01,10.00
2007,09,21,02,02,10.00
2007,09,21,02,03,10.00
2007,09,21,02,04,10.00
2007,09,21,02,05,10.00
2007,09,21,02,06,10.00
2007,09,21,02,07,10.00
2007,09,21,02,08,10.00
2007,09,21,02,09,10.00
2007,09,21,02,10,10.00
2007,09,21,02,11,9.90
2007,09,21,02,12,9.90
2007,09,21,02,13,9.90
2007,09,21,02,14,9.90
2007,09,21,02,15,9.90
2007,09,21,02,16,9.90
2007,09,21,02,17,9.90
2007,09,21,02,18,9.90
2007,09,21,02,19,9.90
2007,09,21,02,20,9.90
2007,09,21,02,21,9.90
2007,09,21,02,22,9.90
2007,09,21,02,23,9.90
2007,09,21,02,24,9.90
2007,09,21,02,25,9.90
2007,09,21,02,26,9.90
2007,09,21,02,27,9.90
2007,09,21,02,28,9.90
2007,09,21,02,29,9.90
2007,09,21,02,30,9.90
2007,09,21,02,31,9.90
2007,09,21,02,32,9.90
2007,09,21,02,33,9.90
2007,09,21,02,34,9.90
2007,09,21,02,35,9.90
2007,09,21,02,36,9.90
2007,09,21,02,37,9.90
2007,09,21,02,38,9.80
2007,09,21,02,39,9.80
2007,09,21,02,40,9.80
2007,09,21,02,41,9.80
2007,09,21,02,42,9.80
2007,09,21,02,43,9.80
2007,09,21,02,44,9.80
2007,09,21,02,45,9.80
2007,09,21,02,46,9.80
2007,09,21,02,47,9.80
2007,09,21,02,48,9.80
2007,09,21,02,49,9.80
2007,09,21,02,50,9.80
2007,09,21,02,51,9.80
2007,09,21,02,52,9.80
2007,09,21,02,53,9.80
2007,09,21,02,54,9.80
2007,09,21,02,55,9.80
2007,09,21,02,56,9.80
2007,09,21,02,57,9.80
2007,09,21,02,58,9.70
2007,09,21,02,59,9.70
2007,09,21,03,00,9.70
2007,09,21,03,01,9.70
2007,09,21,03,02,9.70
2007,09,21,03,03,9.70
2007,09,21,03,04,9.70
2007,09,21,03,05,9.70
2007,09,21,03,06,9.70
2007,09,21,03,07,9.70
2007,09,21,03,08,9.70
2007,09,21,03,09,9.70
2007,09,21,03,10,9.70
2007,09,21,03,11,9.70
2007,09,21,03,12,9.70
2007,09,21,03,13,9.70
2007,09,21,03,14,9.70
2007,09,21,03,15,9.70
2007,09,21,03,16,9.70
2007,09,21,03,17,9.70
2007,09,21,03,18,9.70
2007,09,21,03,19,9.70
2007,09,21,03,20,9.70
2007,09,21,03,21,9.70
2007,09,21,03,22,9.70
2007,09,21,03,23,9.70
2007,09,21,03,24,9.60
2007,09,21,03,25,9.60
2007,09,21,03,26,9.60
2007,09,21,03,27,9.60
2007,09,21,03,28,9.60
2007,09,21,03,29,9.60
2007,09,21,03,30,9.60
2007,09,21,03,31,9.60
2007,09,21,03,32,9.50
2007,09,21,03,33,9.50
2007,09,21,03,34,9.50
2007,09,21,03,35,9.50
2007,09,21,03,36,9.40
2007,09,21,03,37,9.40
2007,09,21,03,38,9.50
2007,09,21,03,39,9.40
2007,09,21,03,40,9.40
2007,09,21,03,41,9.50
2007,09,21,03,42,9.40
2007,09,21,03,43,9.50
2007,09,21,03,44,9.40
2007,09,21,03,45,9.40
2007,09,21,03,46,9.40
2007,09,21,03,47,9.50
2007,09,21,03,48,9.50
2007,09,21,03,49,9.50
2007,09,21,03,50,9.50
2007,09,21,03,51,9.50
2007,09,21,03,52,9.60
2007,09,21,03,53,9.60
2007,09,21,03,54,9.60
2007,09,21,03,55,9.60
2007,09,21,03,56,9.60
2007,09,21,03,57,9.60
2007,09,21,03,58,9.60
2007,09,21,03,59,9.60
2007,09,21,04,00,9.60
2007,09,21,04,01,9.70
2007,09,21,04,02,9.70
2007,09,21,04,03,9.70
2007,09,21,04,04,9.70
2007,09,21,04,05,9.70
2007,09,21,04,06,9.70
2007,09,21,04,07,9.80
2007,09,21,04,08,9.80
2007,09,21,04,09,9.80
2007,09,21,04,10,9.80
2007,09,21,04,11,9.70
2007,09,21,04,12,9.70
2007,09,21,04,13,9.70
2007,09,21,04,14,9.70
2007,09,21,04,15,9.70
2007,09,21,04,16,9.70
2007,09,21,04,17,9.70
2007,09,21,04,18,9.70
2007,09,21,04,19,9.70
2007,09,21,04,20,9.70
2007,09,21,04,21,9.70
2007,09,21,04,22,9.70
2007,09,21,04,23,9.60
2007,09,21,04,24,9.60
2007,09,21,04,25,9.60
2007,09,21,04,26,9.60
2007,09,21,04,27,9.60
2007,09,21,04,28,9.60
2007,09,21,04,29,9.60
2007,09,21,04,30,9.60
2007,09,21,04,31,9.60
2007,09,21,04,32,9.60
2007,09,21,04,33,9.50
2007,09,21,04,34,9.50
2007,09,21,04,35,9.40
2007,09,21,04,36,9.40
2007,09,21,04,37,9.40
2007,09,21,04,38,9.40
2007,09,21,04,39,9.40
2007,09,21,04,40,9.40
2007,09,21,04,41,9.40
2007,09,21,04,42,9.40
2007,09,21,04,43,9.40
2007,09,21,04,44,9.40
2007,09,21,04,45,9.40
2007,09,21,04,46,9.40
2007,09,21,04,47,9.40
2007,09,21,04,48,9.40
2007,09,21,04,49,9.40
2007,09,21,04,50,9.40
2007,09,21,04,51,9.50
2007,09,21,04,52,9.50
2007,09,21,04,53,9.50
2007,09,21,04,54,9.50
2007,09,21,04,55,9.50
2007,09,21,04,56,9.50
2007,09,21,04,57,9.50
2007,09,21,04,58,9.50
2007,09,21,04,59,9.50
2007,09,21,05,00,9.40
2007,09,21,05,01,9.50
2007,09,21,05,02,9.40
2007,09,21,05,03,9.40
2007,09,21,05,04,9.40
2007,09,21,05,05,9.40
2007,09,21,05,06,9.50
2007,09,21,05,07,9.50
2007,09,21,05,08,9.50
2007,09,21,05,09,9.50
2007,09,21,05,10,9.50
2007,09,21,05,11,9.50
2007,09,21,05,12,9.50
2007,09,21,05,13,9.50
2007,09,21,05,14,9.50
2007,09,21,05,15,9.50
2007,09,21,05,16,9.50
2007,09,21,05,17,9.50
2007,09,21,05,18,9.60
2007,09,21,05,19,9.60
2007,09,21,05,20,9.60
2007,09,21,05,21,9.50
2007,09,21,05,22,9.50
2007,09,21,05,23,9.50
2007,09,21,05,24,9.50
2007,09,21,05,25,9.60
2007,09,21,05,26,9.60
2007,09,21,05,27,9.60
2007,09,21,05,28,9.60
2007,09,21,05,29,9.60
2007,09,21,05,30,9.60
2007,09,21,05,31,9.60
2007,09,21,05,32,9.60
2007,09,21,05,33,9.60
2007,09,21,05,34,9.60
2007,09,21,05,35,9.50
2007,09,21,05,36,9.50
2007,09,21,05,37,9.60
2007,09,21,05,38,9.50
2007,09,21,05,39,9.60
2007,09,21,05,40,9.50
2007,09,21,05,41,9.50
2007,09,21,05,42,9.50
2007,09,21,05,43,9.50
2007,09,21,05,44,9.40
2007,09,21,05,45,9.40
2007,09,21,05,46,9.40
2007,09,21,05,47,9.40
2007,09,21,05,48,9.40
2007,09,21,05,49,9.40
2007,09,21,05,50,9.30
2007,09,21,05,51,9.40
2007,09,21,05,52,9.30
2007,09,21,05,53,9.30
2007,09,21,05,54,9.30
2007,09,21,05,55,9.30
2007,09,21,05,56,9.30
2007,09,21,05,57,9.30
2007,09,21,05,58,9.30
2007,09,21,05,59,9.30
2007,09,21,06,00,9.30
2007,09,21,06,01,9.30
2007,09,21,06,02,9.30
2007,09,21,06,03,9.30
2007,09,21,06,04,9.30
2007,09,21,06,05,9.30
2007,09,21,06,06,9.30
2007,09,21,06,07,9.30
2007,09,21,06,08,9.30
2007,09,21,06,09,9.30
2007,09,21,06,10,9.30
2007,09,21,06,11,9.30
2007,09,21,06,12,9.30
2007,09,21,06,13,9.30
2007,09,21,06,14,9.30
2007,09,21,06,15,9.30
2007,09,21,06,16,9.30
2007,09,21,06,17,9.20
2007,09,21,06,18,9.20
2007,09,21,06,19,9.20
2007,09,21,06,20,9.20
2007,09,21,06,21,9.20
2007,09,21,06,22,9.20
2007,09,21,06,23,9.20
2007,09,21,06,24,9.30
2007,09,21,06,25,9.30
2007,09,21,06,26,9.30
2007,09,21,06,27,9.30
2007,09,21,06,28,9.30
2007,09,21,06,29,9.30
2007,09,21,06,30,9.30
2007,09,21,06,31,9.20
2007,09,21,06,32,9.20
2007,09,21,06,33,9.20
2007,09,21,06,34,9.20
2007,09,21,06,35,9.20
2007,09,21,06,36,9.20
2007,09,21,06,37,9.20
2007,09,21,06,38,9.20
2007,09,21,06,39,9.10
2007,09,21,06,40,9.10
2007,09,21,06,41,9.10
2007,09,21,06,42,9.10
2007,09,21,06,43,9.20
2007,09,21,06,44,9.20
2007,09,21,06,45,9.20
2007,09,21,06,46,9.20
2007,09,21,06,47,9.20
2007,09,21,06,48,9.30
2007,09,21,06,49,9.30
2007,09,21,06,50,9.30
2007,09,21,06,51,9.30
2007,09,21,06,52,9.30
2007,09,21,06,53,9.30
2007,09,21,06,54,9.30
2007,09,21,06,55,9.30
2007,09,21,06,56,9.30
2007,09,21,06,57,9.30
2007,09,21,06,58,9.30
2007,09,21,06,59,9.30
2007,09,21,07,00,9.30
2007,09,21,07,01,9.30
2007,09,21,07,02,9.30
2007,09,21,07,03,9.30
2007,09,21,07,04,9.30
2007,09,21,07,05,9.30
2007,09,21,07,06,9.30
2007,09,21,07,07,9.30
2007,09,21,07,08,9.30
2007,09,21,07,09,9.30
2007,09,21,07,10,9.30
2007,09,21,07,11,9.30
2007,09,21,07,12,9.30
2007,09,21,07,13,9.30
2007,09,21,07,14,9.30
2007,09,21,07,15,9.30
2007,09,21,07,16,9.30
2007,09,21,07,17,9.30
2007,09,21,07,18,9.30
2007,09,21,07,19,9.30
2007,09,21,07,20,9.30
2007,09,21,07,21,9.30
2007,09,21,07,22,9.30
2007,09,21,07,23,9.30
2007,09,21,07,24,9.30
2007,09,21,07,25,9.30
2007,09,21,07,26,9.30
2007,09,21,07,27,9.30
2007,09,21,07,28,9.30
2007,09,21,07,29,9.40
2007,09,21,07,30,9.40
2007,09,21,07,31,9.40
2007,09,21,07,32,9.40
2007,09,21,07,33,9.40
2007,09,21,07,34,9.40
2007,09,21,07,35,9.40
2007,09,21,07,36,9.50
2007,09,21,07,37,9.50
2007,09,21,07,38,9.50
2007,09,21,07,39,9.50
2007,09,21,07,40,9.60
2007,09,21,07,41,9.60
2007,09,21,07,42,9.60
2007,09,21,07,43,9.60
2007,09,21,07,44,9.60
2007,09,21,07,45,9.60
2007,09,21,07,46,9.60
2007,09,21,07,47,9.60
2007,09,21,07,48,9.70
2007,09,21,07,49,9.70
2007,09,21,07,50,9.70
2007,09,21,07,51,9.70
2007,09,21,07,52,9.80
2007,09,21,07,53,9.80
2007,09,21,07,54,9.90
2007,09,21,07,55,9.90
2007,09,21,07,56,10.00
2007,09,21,07,57,10.00
2007,09,21,07,58,10.00
2007,09,21,07,59,10.10
2007,09,21,08,00,10.00
2007,09,21,08,01,10.00
2007,09,21,08,02,10.00
2007,09,21,08,03,10.00
2007,09,21,08,04,10.00
2007,09,21,08,05,10.10
2007,09,21,08,06,10.10
2007,09,21,08,07,10.10
2007,09,21,08,08,10.20
2007,09,21,08,09,10.20
2007,09,21,08,10,10.20
2007,09,21,08,11,10.20
2007,09,21,08,12,10.30
2007,09,21,08,13,10.30
2007,09,21,08,14,10.30
2007,09,21,08,15,10.30
2007,09,21,08,16,10.40
2007,09,21,08,17,10.40
2007,09,21,08,18,10.40
2007,09,21,08,19,10.40
2007,09,21,08,20,10.40
2007,09,21,08,21,10.50
2007,09,21,08,22,10.50
2007,09,21,08,23,10.60
2007,09,21,08,24,10.60
2007,09,21,08,25,10.70
2007,09,21,08,26,10.70
2007,09,21,08,27,10.70
2007,09,21,08,28,10.80
2007,09,21,08,29,10.80
2007,09,21,08,30,10.90
2007,09,21,08,31,10.90
2007,09,21,08,32,11.00
2007,09,21,08,33,11.00
2007,09,21,08,34,11.00
2007,09,21,08,35,11.00
2007,09,21,08,36,11.00
2007,09,21,08,37,11.00
2007,09,21,08,38,11.00
2007,09,21,08,39,11.00
2007,09,21,08,40,11.00
2007,09,21,08,41,11.00
2007,09,21,08,42,11.00
2007,09,21,08,43,11.00
2007,09,21,08,44,11.00
2007,09,21,08,45,11.00
2007,09,21,08,46,11.00
2007,09,21,08,47,11.10
2007,09,21,08,48,11.10
2007,09,21,08,49,11.10
2007,09,21,08,50,11.10
2007,09,21,08,51,11.20
2007,09,21,08,52,11.20
2007,09,21,08,53,11.30
2007,09,21,08,54,11.30
2007,09,21,08,55,11.30
2007,09,21,08,56,11.40
2007,09,21,08,57,11.40
2007,09,21,08,58,11.40
2007,09,21,08,59,11.40
2007,09,21,09,00,11.40
2007,09,21,09,01,11.50
2007,09,21,09,02,11.50
2007,09,21,09,03,11.60
2007,09,21,09,04,11.60
2007,09,21,09,05,11.60
2007,09,21,09,06,11.60
2007,09,21,09,07,11.70
2007,09,21,09,08,11.70
2007,09,21,09,09,11.70
2007,09,21,09,10,11.70
2007,09,21,09,11,11.80
2007,09,21,09,12,11.80
2007,09,21,09,13,11.80
2007,09,21,09,14,11.80
2007,09,21,09,15,11.80
2007,09,21,09,16,11.90
2007,09,21,09,17,11.90
2007,09,21,09,18,11.90
2007,09,21,09,19,11.90
2007,09,21,09,20,12.00
2007,09,21,09,21,12.00
2007,09,21,09,22,12.00
2007,09,21,09,23,12.00
2007,09,21,09,24,12.10
2007,09,21,09,25,12.10
2007,09,21,09,26,12.10
2007,09,21,09,27,12.20
2007,09,21,09,28,12.20
2007,09,21,09,29,12.30
2007,09,21,09,30,12.30
2007,09,21,09,31,12.30
2007,09,21,09,32,12.30
2007,09,21,09,33,12.30
2007,09,21,09,34,12.30
2007,09,21,09,35,12.30
2007,09,21,09,36,12.30
2007,09,21,09,37,12.30
2007,09,21,09,38,12.30
2007,09,21,09,39,12.30
2007,09,21,09,40,12.30
2007,09,21,09,41,12.30
2007,09,21,09,42,12.30
2007,09,21,09,43,12.30
2007,09,21,09,44,12.30
2007,09,21,09,45,12.30
2007,09,21,09,46,12.30
2007,09,21,09,47,12.30
2007,09,21,09,48,12.40
2007,09,21,09,49,12.40
2007,09,21,09,50,12.40
2007,09,21,09,51,12.40
2007,09,21,09,52,12.40
2007,09,21,09,53,12.50
2007,09,21,09,54,12.50
2007,09,21,09,55,12.50
2007,09,21,09,56,12.50
2007,09,21,09,57,12.60
2007,09,21,09,58,12.60
2007,09,21,09,59,12.60
2007,09,21,10,00,12.70
2007,09,21,10,01,12.70
2007,09,21,10,02,12.70
2007,09,21,10,03,12.70
2007,09,21,10,04,12.80
2007,09,21,10,05,12.80
2007,09,21,10,06,12.80
2007,09,21,10,07,12.80
2007,09,21,10,08,12.90
2007,09,21,10,09,12.90
2007,09,21,10,10,13.00
2007,09,21,10,11,13.00
2007,09,21,10,12,13.10
2007,09,21,10,13,13.10
2007,09,21,10,14,13.20
2007,09,21,10,15,13.20
2007,09,21,10,16,13.20
2007,09,21,10,17,13.30
2007,09,21,10,18,13.30
2007,09,21,10,19,13.40
2007,09,21,10,20,13.40
2007,09,21,10,21,13.50
2007,09,21,10,22,13.60
2007,09,21,10,23,13.60
2007,09,21,10,24,13.70
2007,09,21,10,25,13.70
2007,09,21,10,26,13.70
2007,09,21,10,27,13.80
2007,09,21,10,28,13.80
2007,09,21,10,29,13.80
2007,09,21,10,30,13.90
2007,09,21,10,31,13.90
2007,09,21,10,32,13.90
2007,09,21,10,33,13.90
2007,09,21,10,34,14.00
2007,09,21,10,35,14.00
2007,09,21,10,36,14.00
2007,09,21,10,37,14.00
2007,09,21,10,38,14.00
2007,09,21,10,39,14.00
2007,09,21,10,40,13.90
2007,09,21,10,41,13.90
2007,09,21,10,42,13.90
2007,09,21,10,43,13.90
2007,09,21,10,44,13.90
2007,09,21,10,45,13.80
2007,09,21,10,46,13.90
2007,09,21,10,47,14.00
2007,09,21,10,48,14.00
2007,09,21,10,49,14.10
2007,09,21,10,50,14.10
2007,09,21,10,51,14.10
2007,09,21,10,52,14.10
2007,09,21,10,53,14.10
2007,09,21,10,54,14.10
2007,09,21,10,55,14.10
2007,09,21,10,56,14.10
2007,09,21,10,57,14.10
2007,09,21,10,58,14.10
2007,09,21,10,59,14.00
2007,09,21,11,00,14.00
2007,09,21,11,01,14.00
2007,09,21,11,02,14.00
2007,09,21,11,03,14.00
2007,09,21,11,04,14.00
2007,09,21,11,05,14.00
2007,09,21,11,06,14.10
2007,09,21,11,07,14.10
2007,09,21,11,08,14.10
2007,09,21,11,09,14.20
2007,09,21,11,10,14.20
2007,09,21,11,11,14.20
2007,09,21,11,12,14.30
2007,09,21,11,13,14.30
2007,09,21,11,14,14.30
2007,09,21,11,15,14.30
2007,09,21,11,16,14.40
2007,09,21,11,17,14.40
2007,09,21,11,18,14.40
2007,09,21,11,19,14.40
2007,09,21,11,20,14.50
2007,09,21,11,21,14.50
2007,09,21,11,22,14.60
2007,09,21,11,23,14.70
2007,09,21,11,24,14.70
2007,09,21,11,25,14.80
2007,09,21,11,26,14.80
2007,09,21,11,27,14.80
2007,09,21,11,28,14.90
2007,09,21,11,29,14.80
2007,09,21,11,30,14.80
2007,09,21,11,31,14.80
2007,09,21,11,32,14.80
2007,09,21,11,33,14.70
2007,09,21,11,34,14.60
2007,09,21,11,35,14.60
2007,09,21,11,36,14.60
2007,09,21,11,37,14.60
2007,09,21,11,38,14.50
2007,09,21,11,39,14.50
2007,09,21,11,40,14.40
2007,09,21,11,41,14.40
2007,09,21,11,42,14.40
2007,09,21,11,43,14.40
2007,09,21,11,44,14.40
2007,09,21,11,45,14.40
2007,09,21,11,46,14.50
2007,09,21,11,47,14.60
2007,09,21,11,48,14.60
2007,09,21,11,49,14.70
2007,09,21,11,50,14.70
2007,09,21,11,51,14.80
2007,09,21,11,52,14.80
2007,09,21,11,53,14.90
2007,09,21,11,54,15.00
2007,09,21,11,55,15.00
2007,09,21,11,56,15.00
2007,09,21,11,57,15.00
2007,09,21,11,58,15.00
2007,09,21,11,59,15.00
2007,09,21,12,00,15.10
2007,09,21,12,01,15.20
2007,09,21,12,02,15.30
2007,09,21,12,03,15.40
2007,09,21,12,04,15.50
2007,09,21,12,05,15.50
2007,09,21,12,06,15.50
2007,09,21,12,07,15.50
2007,09,21,12,08,15.50
2007,09,21,12,09,15.60
2007,09,21,12,10,15.60
2007,09,21,12,11,15.70
2007,09,21,12,12,15.70
2007,09,21,12,13,15.70
2007,09,21,12,14,15.60
2007,09,21,12,15,15.60
2007,09,21,12,16,15.50
2007,09,21,12,17,15.50
2007,09,21,12,18,15.40
2007,09,21,12,19,15.40
2007,09,21,12,20,15.40
2007,09,21,12,21,15.40
2007,09,21,12,22,15.40
2007,09,21,12,23,15.40
2007,09,21,12,24,15.40
2007,09,21,12,25,15.30
2007,09,21,12,26,15.30
2007,09,21,12,27,15.30
2007,09,21,12,28,15.30
2007,09,21,12,29,15.20
2007,09,21,12,30,15.20
2007,09,21,12,31,15.20
2007,09,21,12,32,15.10
2007,09,21,12,33,15.10
2007,09,21,12,34,15.20
2007,09,21,12,35,15.20
2007,09,21,12,36,15.20
2007,09,21,12,37,15.20
2007,09,21,12,38,15.20
2007,09,21,12,39,15.30
2007,09,21,12,40,15.40
2007,09,21,12,41,15.50
2007,09,21,12,42,15.60
2007,09,21,12,43,15.70
2007,09,21,12,44,15.80
2007,09,21,12,45,15.80
2007,09,21,12,46,15.80
2007,09,21,12,47,15.80
2007,09,21,12,48,15.80
2007,09,21,12,49,15.70
2007,09,21,12,50,15.70
2007,09,21,12,51,15.70
2007,09,21,12,52,15.70
2007,09,21,12,53,15.80
2007,09,21,12,54,15.80
2007,09,21,12,55,15.80
2007,09,21,12,56,15.80
2007,09,21,12,57,15.80
2007,09,21,12,58,15.80
2007,09,21,12,59,15.70
2007,09,21,13,00,15.80
2007,09,21,13,01,15.90
2007,09,21,13,02,16.00
2007,09,21,13,03,16.10
2007,09,21,13,04,16.10
2007,09,21,13,05,16.10
2007,09,21,13,06,16.00
2007,09,21,13,07,15.80
2007,09,21,13,08,15.60
2007,09,21,13,09,15.40
2007,09,21,13,10,15.30
2007,09,21,13,11,15.20
2007,09,21,13,12,15.10
2007,09,21,13,13,15.00
2007,09,21,13,14,15.00
2007,09,21,13,15,15.00
2007,09,21,13,16,15.00
2007,09,21,13,17,15.00
2007,09,21,13,18,15.00
2007,09,21,13,19,15.00
2007,09,21,13,20,15.00
2007,09,21,13,21,14.90
2007,09,21,13,22,14.90
2007,09,21,13,23,14.90
2007,09,21,13,24,14.90
2007,09,21,13,25,15.00
2007,09,21,13,26,15.00
2007,09,21,13,27,14.90
2007,09,21,13,28,15.00
2007,09,21,13,29,15.00
2007,09,21,13,30,15.00
2007,09,21,13,31,15.00
2007,09,21,13,32,15.10
2007,09,21,13,33,15.20
2007,09,21,13,34,15.30
2007,09,21,13,35,15.30
2007,09,21,13,36,15.40
2007,09,21,13,37,15.40
2007,09,21,13,38,15.40
2007,09,21,13,39,15.30
2007,09,21,13,40,15.30
2007,09,21,13,41,15.30
2007,09,21,13,42,15.30
2007,09,21,13,43,15.40
2007,09,21,13,44,15.40
2007,09,21,13,45,15.40
2007,09,21,13,46,15.40
2007,09,21,13,47,15.40
2007,09,21,13,48,15.50
2007,09,21,13,49,15.60
2007,09,21,13,50,15.60
2007,09,21,13,51,15.60
2007,09,21,13,52,15.60
2007,09,21,13,53,15.70
2007,09,21,13,54,15.60
2007,09,21,13,55,15.60
2007,09,21,13,56,15.50
2007,09,21,13,57,15.50
2007,09,21,13,58,15.50
2007,09,21,13,59,15.60
2007,09,21,14,00,15.60
2007,09,21,14,01,15.50
2007,09,21,14,02,15.50
2007,09,21,14,03,15.50
2007,09,21,14,04,15.50
2007,09,21,14,05,15.60
2007,09,21,14,06,15.60
2007,09,21,14,07,15.60
2007,09,21,14,08,15.70
2007,09,21,14,09,15.60
2007,09,21,14,10,15.60
2007,09,21,14,11,15.60
2007,09,21,14,12,15.60
2007,09,21,14,13,15.60
2007,09,21,14,14,15.60
2007,09,21,14,15,15.60
2007,09,21,14,16,15.60
2007,09,21,14,17,15.50
2007,09,21,14,18,15.50
2007,09,21,14,19,15.40
2007,09,21,14,20,15.40
2007,09,21,14,21,15.40
2007,09,21,14,22,15.30
2007,09,21,14,23,15.30
2007,09,21,14,24,15.30
2007,09,21,14,25,15.30
2007,09,21,14,26,15.20
2007,09,21,14,27,15.20
2007,09,21,14,28,15.10
2007,09,21,14,29,15.10
2007,09,21,14,30,15.10
2007,09,21,14,31,15.10
2007,09,21,14,32,15.10
2007,09,21,14,33,15.00
2007,09,21,14,34,15.00
2007,09,21,14,35,15.00
2007,09,21,14,36,15.00
2007,09,21,14,37,15.00
2007,09,21,14,38,15.00
2007,09,21,14,39,15.00
2007,09,21,14,40,15.00
2007,09,21,14,41,15.10
2007,09,21,14,42,15.10
2007,09,21,14,43,15.10
2007,09,21,14,44,15.10
2007,09,21,14,45,15.20
2007,09,21,14,46,15.20
2007,09,21,14,47,15.20
2007,09,21,14,48,15.20
2007,09,21,14,49,15.20
2007,09,21,14,50,15.20
2007,09,21,14,51,15.20
2007,09,21,14,52,15.20
2007,09,21,14,53,15.20
2007,09,21,14,54,15.20
2007,09,21,14,55,15.20
2007,09,21,14,56,15.20
2007,09,21,14,57,15.20
2007,09,21,14,58,15.20
2007,09,21,14,59,15.10
2007,09,21,15,00,15.00
2007,09,21,15,01,15.00
2007,09,21,15,02,15.00
2007,09,21,15,03,15.00
2007,09,21,15,04,15.00
2007,09,21,15,05,14.90
2007,09,21,15,06,14.80
2007,09,21,15,07,14.70
2007,09,21,15,08,14.60
2007,09,21,15,09,14.60
2007,09,21,15,10,14.60
2007,09,21,15,11,14.50
2007,09,21,15,12,14.50
2007,09,21,15,13,14.50
2007,09,21,15,14,14.60
2007,09,21,15,15,14.60
2007,09,21,15,16,14.60
2007,09,21,15,17,14.60
2007,09,21,15,18,14.60
2007,09,21,15,19,14.60
2007,09,21,15,20,14.70
2007,09,21,15,21,14.70
2007,09,21,15,22,14.70
2007,09,21,15,23,14.70
2007,09,21,15,24,14.70
2007,09,21,15,25,14.70
2007,09,21,15,26,14.70
2007,09,21,15,27,14.70
2007,09,21,15,28,14.70
2007,09,21,15,29,14.70
2007,09,21,15,30,14.70
2007,09,21,15,31,14.70
2007,09,21,15,32,14.70
2007,09,21,15,33,14.70
2007,09,21,15,34,14.70
2007,09,21,15,35,14.70
2007,09,21,15,36,14.70
2007,09,21,15,37,14.60
2007,09,21,15,38,14.60
2007,09,21,15,39,14.60
2007,09,21,15,40,14.60
2007,09,21,15,41,14.60
2007,09,21,15,42,14.50
2007,09,21,15,43,14.50
2007,09,21,15,44,14.40
2007,09,21,15,45,14.30
2007,09,21,15,46,14.30
2007,09,21,15,47,14.30
2007,09,21,15,48,14.30
2007,09,21,15,49,14.20
2007,09,21,15,50,14.20
2007,09,21,15,51,14.20
2007,09,21,15,52,14.20
2007,09,21,15,53,14.20
2007,09,21,15,54,14.20
2007,09,21,15,55,14.20
2007,09,21,15,56,14.20
2007,09,21,15,57,14.20
2007,09,21,15,58,14.20
2007,09,21,15,59,14.20
2007,09,21,16,00,14.30
2007,09,21,16,01,14.30
2007,09,21,16,02,14.30
2007,09,21,16,03,14.30
2007,09,21,16,04,14.30
2007,09,21,16,05,14.30
2007,09,21,16,06,14.30
2007,09,21,16,07,14.30
2007,09,21,16,08,14.20
2007,09,21,16,09,14.20
2007,09,21,16,10,14.20
2007,09,21,16,11,14.20
2007,09,21,16,12,14.20
2007,09,21,16,13,14.10
2007,09,21,16,14,14.10
2007,09,21,16,15,14.10
2007,09,21,16,16,14.10
2007,09,21,16,17,14.00
2007,09,21,16,18,14.00
2007,09,21,16,19,13.90
2007,09,21,16,20,13.90
2007,09,21,16,21,13.80
2007,09,21,16,22,13.70
2007,09,21,16,23,13.50
2007,09,21,16,24,13.40
2007,09,21,16,25,13.30
2007,09,21,16,26,13.30
2007,09,21,16,27,13.20
2007,09,21,16,28,13.20
2007,09,21,16,29,13.20
2007,09,21,16,30,13.20
2007,09,21,16,31,13.20
2007,09,21,16,32,13.20
2007,09,21,16,33,13.20
2007,09,21,16,34,13.20
2007,09,21,16,35,13.20
2007,09,21,16,36,13.10
2007,09,21,16,37,13.10
2007,09,21,16,38,13.10
2007,09,21,16,39,13.10
2007,09,21,16,40,13.10
2007,09,21,16,41,13.00
2007,09,21,16,42,13.10
2007,09,21,16,43,13.10
2007,09,21,16,44,13.10
2007,09,21,16,45,13.10
2007,09,21,16,46,13.10
2007,09,21,16,47,13.10
2007,09,21,16,48,13.10
2007,09,21,16,49,13.00
2007,09,21,16,50,13.00
2007,09,21,16,51,13.00
2007,09,21,16,52,13.00
2007,09,21,16,53,12.90
2007,09,21,16,54,12.90
2007,09,21,16,55,12.90
2007,09,21,16,56,12.90
2007,09,21,16,57,12.90
2007,09,21,16,58,12.90
2007,09,21,16,59,12.90
2007,09,21,17,00,12.80
2007,09,21,17,01,12.80
2007,09,21,17,02,12.80
2007,09,21,17,03,12.90
2007,09,21,17,04,12.80
2007,09,21,17,05,12.80
2007,09,21,17,06,12.80
2007,09,21,17,07,12.90
2007,09,21,17,08,12.80
2007,09,21,17,09,12.80
2007,09,21,17,10,12.90
2007,09,21,17,11,12.80
2007,09,21,17,12,12.80
2007,09,21,17,13,12.80
2007,09,21,17,14,12.80
2007,09,21,17,15,12.80
2007,09,21,17,16,12.80
2007,09,21,17,17,12.90
2007,09,21,17,18,12.90
2007,09,21,17,19,12.90
2007,09,21,17,20,12.80
2007,09,21,17,21,12.80
2007,09,21,17,22,12.80
2007,09,21,17,23,12.80
2007,09,21,17,24,12.80
2007,09,21,17,25,12.80
2007,09,21,17,26,12.90
2007,09,21,17,27,12.90
2007,09,21,17,28,12.90
2007,09,21,17,29,12.90
2007,09,21,17,30,12.90
2007,09,21,17,31,12.90
2007,09,21,17,32,12.90
2007,09,21,17,33,12.90
2007,09,21,17,34,12.90
2007,09,21,17,35,13.00
2007,09,21,17,36,12.90
2007,09,21,17,37,13.00
2007,09,21,17,38,12.90
2007,09,21,17,39,12.90